EW9766 Weather Reports


Display with metric or nautical units.
time (UTC)temp
F
wind
direction
speed
MPH
gust
MPH
rain 1hr
in
rain 24hr
in
rain mn
in
humidity
%
barometer
mb
20260503211534 80 76 7.0 16.0 0.00 0.00 0.00 29 1014.1
20260503210105 80 68 7.0 20.0 0.00 0.00 0.00 30 1014.3
20260503204536 80 93 6.0 14.0 0.00 0.00 0.00 30 1014.5
20260503203032 80 88 5.0 14.0 0.00 0.00 0.00 31 1014.6
20260503201535 79 38 9.0 18.0 0.00 0.00 0.00 31 1014.7
20260503200149 79 69 6.0 17.0 0.00 0.00 0.00 31 1015.0
20260503194530 79 68 8.0 14.0 0.00 0.00 0.00 100 1015.1
20260503193032 78 49 6.0 15.0 0.00 0.00 0.00 100 1015.2
20260503191535 78 54 8.0 15.0 0.00 0.00 0.00 100 1015.3
20260503190030 78 38 7.0 16.0 0.00 0.00 0.00 100 1015.4
20260503184535 79 68 4.0 14.0 0.00 0.00 0.00 42 1015.5
20260503183034 78 343 3.0 8.0 0.00 0.00 0.00 35 1015.7
20260503181534 77 59 4.0 10.0 0.00 0.00 0.00 42 1015.7
20260503180036 76 312 5.0 10.0 0.00 0.00 0.00 43 1015.8
20260503174536 75 298 4.0 9.0 0.00 0.00 0.00 45 1015.9
20260503150143 66 315 0.0 3.0 0.00 0.00 0.00 53 1016.3
20260503130146 55 163 7.0 12.0 0.00 0.00 0.00 60 1016.1
20260503081531 56 173 6.0 11.0 0.00 0.00 0.00 60 1016.2
20260503071535 56 145 5.0 8.0 0.00 0.00 0.00 60 1016.3
20260503060106 57 202 1.0 3.0 0.00 0.00 0.00 61 1016.2
20260503054537 58 279 0.0 2.0 0.00 0.00 0.00 59 1016.1
20260503053035 60 180 3.0 5.0 0.00 0.00 0.00 56 1016.0
20260503051536 62 167 4.0 8.0 0.00 0.00 0.00 52 1016.0
20260503050108 64 160 4.0 7.0 0.00 0.00 0.00 50 1016.1
20260503044651 64 143 4.0 9.0 0.00 0.00 0.00 50 1016.1
20260503043034 64 143 6.0 11.0 0.00 0.00 0.00 50 1016.1
20260503041535 64 136 5.0 11.0 0.00 0.00 0.00 51 1015.9
20260503040107 65 145 5.0 9.0 0.00 0.00 0.00 51 1015.8
20260503034536 66 143 5.0 9.0 0.00 0.00 0.00 51 1015.6
20260503033035 66 140 5.0 10.0 0.00 0.00 0.00 51 1015.4
20260503031643 65 142 5.0 10.0 0.00 0.00 0.00 53 1015.1
20260503030036 65 137 5.0 8.0 0.00 0.00 0.00 55 1014.8
20260503023035 67 162 3.0 5.0 0.00 0.00 0.00 51 1014.5
20260503021530 69 177 2.0 4.0 0.00 0.00 0.00 48 1014.5
20260503020032 70 164 2.0 4.0 0.00 0.00 0.00 46 1014.5
20260503014533 71 185 1.0 4.0 0.00 0.00 0.00 46 1014.5
20260503013108 72 187 1.0 3.0 0.00 0.00 0.00 41 1014.4
20260503011642 73 188 1.0 7.0 0.00 0.00 0.00 39 1014.5
20260503010107 73 111 3.0 7.0 0.00 0.00 0.00 38 1014.4
20260503004534 74 41 6.0 11.0 0.00 0.00 0.00 36 1014.4
20260503003034 74 14 7.0 18.0 0.00 0.00 0.00 37 1014.4
20260503001531 74 3 6.0 13.0 0.00 0.00 0.00 36 1014.4
20260503000037 74 3 6.0 10.0 0.00 0.00 0.00 35 1014.4
20260502234532 75 30 7.0 16.0 0.00 0.00 0.00 35 1014.6
20260502233038 76 40 3.0 11.0 0.00 0.00 0.00 45 1014.6
20260502231531 76 47 3.0 9.0 0.00 0.00 0.00 35 1014.8
20260502230034 75 6 5.0 12.0 0.00 0.00 0.00 35 1015.0
20260502224606 75 22 6.0 11.0 0.00 0.00 0.00 36 1015.2
20260502221533 75 76 9.0 20.0 0.00 0.00 0.00 35 1015.5
20260502220040 76 33 10.0 21.0 0.00 0.00 0.00 34 1015.5
20260502214531 75 29 7.0 19.0 0.00 0.00 0.00 35 1015.5
20260502213035 74 25 10.0 20.0 0.00 0.00 0.00 37 1015.7